User: anonymous   Login
Location: Hepcat Sky Observatory
(29.9800°N, 95.6500°W)
Time: 22:43:45
(UTC-05:00)
Language:

ALOS - Orbit

View from above orbital plane
View from above orbital plane
View from above satellite
View from above satellite

Ground track
Ground track

The orbit data is extracted from the following two-line orbital elements,

1 28931U 06002A   17176.62265933 +.00000226 +00000-0 +53454-4 0  9994
2 28931 097.8431 203.5570 0000731 054.0201 306.1070 14.62363689608696
Epoch (UTC): 25 June 2017 14:56:37
Eccentricity: 0.0000731
inclination: 97.8431°
perigee height: 685 km
apogee height: 686 km
right ascension of ascending node: 203.5570°
argument of perigee: 54.0201°
revolutions per day: 14.62363689
mean anomaly at epoch: 306.1070°
orbit number at epoch: 60869

The dashed part of the orbit path shows where the satellite is in the earth's shadow,  

DLR